Hourly Data Report for October 01, 2017

All times are specified in Local Standard Time (LST). Add 1 hour to adjust for Daylight Saving Time where and when it is observed.

HOLMAN CS
NORTHWEST TERRITORIES

70°45'41.002" N
117°48'00.002" W
29.90 m
2502505
71029
XHI

Download Data

Hourly Data (October 2017)
Hourly Data Report for October 1, 2017
Temp Definition
°C
Dew Point Temp Definition
°C
Rel Hum Definition
%
Wind Dir Definition
10's deg

Wind Spd Definition
km/h
Visibility Definition
km
Stn Press Definition
kPa
Hmdx Definition


Wind Chill Definition


Weather Definition


TIME
00:00 1.4 -0.6 87 29 19   100.91     LegendNANA
01:00 1.4 -0.6 86 29 15   100.91     LegendNANA
02:00 1.2 0.0 92 30 26   100.90     LegendNANA
03:00 0.4 -1.2 89 32 26   100.96     LegendNANA
04:00 0.5 -1.8 85 33 17   101.00     LegendNANA
05:00 0.1 -3.0 79 33 19   101.03     LegendNANA
06:00 -1.3 -3.9 82 36 13   101.03   -6 LegendNANA
07:00 -0.7 -2.3 89 34 11   101.05   -4 LegendNANA
08:00 -0.8 -1.9 93 32 4   101.05   -2 LegendNANA
09:00 -1.2 -2.2 93 8 3   101.04   -2 LegendNANA
10:00 1.3 -2.4 76 28 26   101.02     LegendNANA
11:00 1.5 -4.2 66 26 29   101.02     LegendNANA
12:00 1.4 -2.3 77 25 27   100.97     LegendNANA
13:00 1.0 -2.8 75 26 25   100.95     LegendNANA
14:00 1.1 -2.4 77 27 21   100.91     LegendNANA
15:00 0.9 -2.1 80 25 24   100.88     LegendNANA
16:00 1.3 -1.7 80 25 28   100.79     LegendNANA
17:00 0.3 -0.3 96 26 28   100.72     LegendNANA
18:00 0.5 0.0 96 29 30   100.68     LegendNANA
19:00 0.4 -0.3 95 31 21   100.67     LegendNANA
20:00 0.0 -0.8 95 31 31   100.66   -7 LegendNANA
21:00 -0.8 -3.1 84 32 33   100.71   -8 LegendNANA
22:00 -1.3 -3.7 83 32 27   100.73   -8 LegendNANA
23:00 -0.9 -3.3 84 33 26   100.71   -7 LegendNANA

Notes on Data Quality.

Legend

  • E = Estimated
  • M = Missing
  • NA = Not Available
  • ‡ = Partner data that is not subject to review by the National Climate Archives
Date modified: